GFSFLT2_sfc_wetblb_210.txt.gz
Wetbulb
35.87 34.79 33.91 34.75 35.69 34.31 36.72 34.25 34.54 39.45 39.77 39.84 39.61 39.84 40.71 40.98 40.23 40.30 40.74 41.29 41.47 41.37 41.14 41.90 42.55 42.99 43.48
32.95 31.00 31.47 31.98 31.46 31.51 33.57 33.75 31.29 35.32 37.94 38.66 38.88 38.55 39.98 40.19 40.20 39.59 39.41 39.02 39.67 39.12 39.67 40.80 41.22 41.91 42.32
32.14 32.06 29.45 29.48 28.70 29.23 29.65 29.35 32.33 35.57 37.71 38.43 37.23 37.97 38.55 39.01 38.69 38.75 37.85 37.27 37.42 38.18 39.19 39.46 39.82 39.87 40.10
31.42 29.68 29.52 27.83 27.54 27.04 26.44 27.50 28.22 32.26 34.04 34.65 35.39 35.70 36.60 36.76 37.11 36.32 36.22 36.51 37.49 38.20 38.18 38.23 38.77 39.12 39.89
30.72 29.85 27.92 27.03 26.35 25.83 25.02 25.47 25.48 26.99 26.60 27.27 26.96 26.91 27.52 32.50 33.17 34.75 35.84 36.59 37.10 37.04 37.22 37.59 37.73 37.97 38.22
27.55 27.70 25.68 26.19 26.28 26.09 25.85 24.47 23.25 27.06 24.89 24.50 25.66 25.39 26.78 26.46 33.01 35.10 35.45 36.04 35.84 35.98 36.41 36.59 36.71 36.90 37.19
26.82 24.91 24.02 25.28 26.17 26.03 25.11 24.11 23.69 26.40 26.30 24.50 25.67 25.41 27.04 28.75 32.78 33.91 34.86 35.18 34.60 34.85 35.08 35.49 35.92 36.28 36.18
27.00 26.01 26.60 27.41 28.05 27.37 26.01 25.72 26.86 27.11 27.03 23.38 26.46 25.56 26.02 26.53 31.21 33.07 34.70 33.45 34.02 33.98 34.33 34.46 34.65 34.80 34.97
35.03 35.36 35.17 34.38 31.27 27.80 25.39 25.25 24.88 25.57 26.03 24.97 25.77 25.28 26.42 24.85 25.62 31.32 32.16 32.57 32.60 32.85 33.43 33.43 33.47 33.64 31.15
29.43 31.34 31.22 31.50 32.49 28.25 27.33 24.77 25.00 22.59 25.90 24.92 25.42 23.75 21.36 26.07 26.52 26.64 25.60 29.73 31.22 31.73 31.88 32.01 31.96 27.38 26.18
24.72 24.81 25.66 26.49 26.57 27.37 28.07 27.34 24.26 23.65 27.25 24.89 23.44 24.64 22.62 23.30 25.51 26.45 25.76 24.67 24.11 25.78 28.89 29.76 30.25 30.31 25.85
25.57 24.76 25.13 26.01 27.24 27.42 27.90 27.75 28.02 26.35 27.46 27.06 18.45 22.22 19.15 21.71 21.21 24.87 25.56 26.05 24.86 23.84 23.64 26.74 29.27 29.72 30.25
25.52 26.08 26.82 27.02 27.63 27.76 28.05 28.11 28.03 27.68 28.07 27.22 23.45 23.22 21.96 21.49 21.02 21.80 22.64 23.64 24.09 23.25 21.31 22.43 22.81 23.33 22.13
26.48 26.86 27.19 27.04 25.96 26.82 24.05 25.43 23.63 24.56 26.99 26.65 25.88 23.59 15.49 21.33 21.54 20.44 21.50 19.89 21.97 22.38 22.43 22.68 23.42 23.96 23.71
26.45 25.99 26.63 26.41 25.79 25.74 24.41 21.73 19.31 20.63 22.03 22.36 23.43 23.77 22.96 20.84 18.80 19.56 19.45 19.68 20.96 21.07 21.20 20.52 22.13 23.09 23.12
24.68 24.17 24.41 24.15 24.19 22.48 19.41 16.33 14.62 17.16 18.50 17.29 13.19 11.23 11.43 16.52 24.64 19.24 19.45 19.08 20.32 20.89 21.34 19.85 19.38 21.79 22.90
25.52 23.81 20.15 17.14 22.50 17.35 18.37 17.13 16.25 18.10 19.92 15.33 7.20 7.00 11.98 12.36 16.83 25.44 18.23 16.85 19.58 19.11 19.19 18.61 17.88 19.85 21.68

GFSFLT2_sfc_wetblb_213.txt.gz
Wetbulb
37.17 36.69 37.41 37.80 38.50 35.61 37.45 34.67 35.84 41.32 41.31 40.74 40.66 40.58 40.63 41.92 42.19 41.35 41.50 42.09 42.81 42.89 42.66 42.56 42.85 43.52 43.91
34.55 33.93 34.00 34.39 32.44 32.74 33.51 33.72 31.11 36.18 38.77 39.65 39.93 40.04 40.11 41.62 41.38 41.03 40.57 40.55 40.09 40.64 40.30 40.59 41.84 42.35 42.98
32.85 33.00 32.08 30.58 30.62 30.74 29.04 28.56 31.50 35.22 37.86 39.51 39.92 38.94 39.69 40.18 40.56 39.84 39.60 38.71 38.44 38.19 38.96 39.84 40.17 40.91 41.00
32.73 31.62 31.89 30.51 30.00 28.83 27.10 27.39 27.83 31.42 34.05 34.37 35.80 36.58 37.64 38.41 38.15 37.76 36.89 37.08 37.32 38.11 38.76 38.61 38.69 39.52 40.21
31.87 30.96 29.87 28.91 28.19 27.31 26.47 26.34 26.06 26.74 26.30 26.38 26.32 25.90 26.72 33.70 33.64 34.95 35.60 36.46 37.05 37.59 37.73 37.93 38.10 38.34 38.55
31.48 31.09 29.45 28.81 26.68 25.84 25.65 23.99 22.82 26.02 24.46 24.17 25.15 24.78 26.61 26.57 32.51 34.61 35.87 36.30 36.37 36.62 36.52 36.79 36.80 37.06 37.40
30.56 28.52 26.00 26.51 26.20 25.28 24.74 23.71 23.76 25.25 25.05 23.97 25.41 24.55 25.95 28.11 33.46 34.30 34.97 35.45 36.15 35.07 35.29 35.59 35.90 36.14 36.49
29.20 26.41 26.56 26.40 27.41 27.23 25.52 24.57 25.50 25.37 25.55 21.60 23.61 23.57 24.70 25.41 31.55 32.78 34.27 35.52 34.11 34.19 34.49 34.70 35.01 35.06 35.36
34.57 35.04 35.01 34.30 30.71 27.13 24.60 23.32 22.72 23.66 24.58 23.67 23.66 23.89 24.71 24.30 25.44 31.17 33.06 33.25 33.80 33.71 33.66 33.95 33.92 34.11 31.96
29.90 31.69 31.75 32.30 33.02 27.07 26.09 21.77 23.48 21.12 25.30 23.81 24.55 23.08 20.80 25.81 26.39 26.71 25.76 30.44 32.47 32.53 33.18 32.91 32.50 28.39 26.61
25.61 25.15 24.97 25.59 25.28 26.30 27.14 26.11 21.28 22.16 27.10 24.45 22.66 24.11 21.91 22.82 25.62 26.78 26.77 26.41 25.68 26.50 29.63 30.43 30.45 30.01 26.21
24.36 23.59 24.58 25.29 26.05 26.49 26.96 27.11 27.37 25.68 26.92 27.15 18.95 21.96 17.21 20.01 20.94 25.19 25.61 26.24 25.83 24.99 24.51 26.83 29.20 29.88 30.13
24.90 25.38 26.39 26.73 27.18 27.17 27.89 27.95 27.66 27.56 28.17 27.29 23.60 23.45 20.04 21.58 20.02 21.96 22.87 23.96 24.52 23.02 22.33 22.29 22.35 23.03 21.77
25.41 26.24 26.89 26.81 26.09 26.76 23.93 25.12 22.26 23.41 26.84 26.46 25.48 23.18 14.58 21.14 21.37 20.31 21.34 19.12 21.07 21.83 22.30 22.33 22.80 23.35 23.03
26.30 25.68 26.26 26.10 25.66 25.68 23.51 21.23 18.41 18.97 20.27 21.75 23.15 23.77 22.65 20.11 18.60 19.93 19.58 19.20 20.45 20.53 20.50 19.72 21.30 22.19 22.47
24.03 24.30 24.06 23.08 22.36 21.83 20.48 16.17 14.20 16.72 16.45 17.75 13.66 10.00 11.18 16.06 24.08 18.94 18.80 18.54 20.03 20.51 20.27 18.35 18.37 21.03 22.03
23.29 21.68 19.41 18.16 22.71 17.94 18.71 16.09 17.02 18.48 17.86 16.18 9.90 10.64 7.95 13.71 16.58 25.91 18.22 16.89 18.59 18.62 19.48 18.60 17.46 19.19 21.04

GFSFLT2_sfc_wetblb_216.txt.gz
Wetbulb
38.15 38.13 38.86 40.53 40.43 39.91 41.44 38.96 40.87 43.94 43.37 42.54 42.21 41.93 41.80 42.02 42.92 43.63 43.25 42.90 43.42 44.05 44.29 44.35 43.85 44.04 44.57
35.25 35.22 35.61 38.09 36.63 36.00 36.03 35.38 33.39 40.10 41.91 41.95 41.81 41.40 41.42 41.35 42.32 42.71 41.89 41.53 41.78 41.71 42.02 42.07 42.09 42.82 43.59
33.38 33.90 32.85 33.55 32.12 32.29 31.54 30.21 32.12 35.30 38.56 39.73 40.58 40.52 39.66 40.53 41.64 41.79 41.29 40.46 40.47 39.92 39.46 39.97 40.90 41.25 42.01
33.51 32.55 32.84 31.70 31.85 30.30 29.50 29.55 28.73 31.35 33.73 34.92 36.22 37.59 38.55 39.45 39.83 39.25 38.83 38.46 38.66 38.72 38.88 39.25 39.43 39.62 40.46
32.69 32.32 31.32 30.83 31.71 30.62 29.49 27.35 26.51 27.38 27.09 27.40 27.52 26.66 26.92 31.82 35.00 36.77 36.93 37.08 37.51 37.94 38.45 38.77 38.63 38.75 39.06
32.94 33.00 31.95 31.89 29.86 29.21 27.58 26.21 24.71 25.86 24.78 24.84 25.26 24.86 25.67 25.79 32.55 35.27 35.65 36.45 37.24 37.40 37.80 37.66 37.30 37.28 37.51
34.69 32.85 30.28 30.31 29.09 26.19 25.29 24.14 23.23 25.55 24.65 23.09 24.41 23.87 25.50 27.72 33.70 35.24 35.63 35.93 36.42 36.83 36.58 36.32 36.35 36.54 36.86
33.41 30.39 29.23 28.74 29.08 27.49 26.15 24.61 25.37 25.51 25.58 21.90 23.01 23.10 24.34 25.04 31.53 33.37 34.32 35.09 36.34 35.80 35.17 35.24 35.41 35.58 35.72
35.26 35.37 35.42 34.72 30.79 27.48 25.01 24.23 22.53 23.33 24.25 23.25 23.08 23.44 24.07 24.31 25.55 31.33 33.88 33.88 34.67 35.39 35.64 35.31 35.01 35.34 32.73
29.71 31.39 31.83 32.57 32.60 27.02 26.43 22.28 22.86 20.15 24.82 22.80 23.71 22.64 18.93 24.93 25.90 26.17 25.46 30.25 32.77 33.50 33.79 33.55 33.47 29.15 27.09
26.67 25.61 25.51 25.47 25.17 26.04 26.22 25.06 21.81 22.29 26.38 22.61 21.31 23.08 20.04 22.06 25.12 26.39 25.77 26.22 26.44 27.16 30.03 30.83 31.00 30.37 26.50
24.78 23.84 24.77 25.69 26.36 27.04 27.32 27.26 27.00 25.72 27.52 27.07 17.96 20.94 16.05 16.07 20.88 25.25 25.70 25.90 25.08 24.78 24.71 27.04 29.13 29.95 30.27
24.85 25.51 26.60 26.93 27.31 27.15 27.79 27.78 27.60 27.62 28.05 27.14 23.57 23.65 19.31 17.65 19.29 21.66 22.57 23.49 24.34 22.82 22.25 22.38 22.37 22.89 21.53
25.58 26.29 26.93 26.57 25.89 26.85 24.60 25.29 22.33 22.76 26.57 26.87 25.95 22.81 16.28 19.80 20.33 19.68 21.40 18.18 21.58 22.05 21.78 21.81 22.41 22.92 22.51
25.97 25.22 25.83 25.81 25.34 24.93 22.81 19.35 16.57 17.18 18.83 21.62 22.05 22.97 22.14 16.24 16.12 19.69 19.37 19.42 20.62 20.13 19.81 19.18 21.00 21.90 21.95
23.27 22.74 21.72 20.35 20.35 20.53 18.68 16.05 15.84 17.28 17.45 17.01 12.94 14.52 12.27 16.26 24.43 19.21 18.70 18.37 19.69 19.95 19.99 17.76 17.96 20.83 22.01
19.36 17.84 17.53 17.94 23.15 17.16 18.45 17.22 15.72 17.78 19.15 17.39 14.74 15.97 6.86 13.33 17.21 27.38 18.85 19.21 18.40 18.59 19.36 18.68 17.78 19.52 21.16

GFSFLT2_sfc_wetblb_222.txt.gz
Wetbulb
48.68 45.87 45.49 46.30 46.82 47.23 47.69 47.67 48.62 49.24 48.70 48.05 47.28 46.45 45.45 44.28 43.84 44.28 44.71 45.44 46.02 46.09 46.40 46.80 47.15 47.24 47.13
42.65 42.03 42.72 43.60 42.68 42.39 41.70 42.24 43.56 47.07 46.68 45.64 44.71 43.74 42.90 42.52 42.82 43.14 43.69 44.34 44.53 43.87 44.23 44.49 44.90 45.56 45.72
38.96 38.17 37.87 38.39 36.17 36.29 36.60 35.75 38.19 43.17 44.47 43.95 43.55 43.13 43.17 42.67 42.52 42.37 42.95 43.76 42.92 42.45 42.22 42.55 42.14 42.34 43.07
37.27 37.35 35.95 35.33 35.92 33.81 32.54 33.38 32.43 34.77 37.29 37.66 38.95 40.00 41.68 41.97 41.39 41.29 41.71 42.39 41.99 41.46 41.05 40.75 40.46 40.71 41.39
35.11 33.87 32.91 32.71 34.10 33.93 32.25 32.08 31.64 32.81 33.02 33.69 35.02 37.04 38.77 38.40 38.56 37.98 38.84 39.63 39.71 39.65 39.77 39.71 39.69 39.93 40.34
35.74 35.49 34.83 34.64 33.00 33.04 30.99 30.99 30.92 32.47 32.84 33.21 33.55 35.16 36.34 36.28 36.52 35.74 36.32 37.36 38.21 38.16 38.33 38.91 39.19 39.00 39.44
36.61 35.45 33.71 33.99 33.87 32.21 32.16 32.37 30.91 30.67 32.87 32.65 32.55 32.43 34.75 33.98 34.12 35.01 36.12 36.93 37.34 37.57 37.95 38.13 38.42 38.67 38.28
37.28 35.62 35.77 35.51 35.28 35.16 33.33 31.05 31.35 31.25 32.69 30.47 31.96 32.27 33.76 34.27 32.72 33.87 34.87 35.65 36.30 36.73 37.27 37.77 37.56 37.23 37.37
38.77 38.83 39.13 38.27 35.97 33.27 30.76 31.12 28.63 29.51 30.79 31.27 31.50 32.56 33.49 34.20 34.22 32.01 34.01 35.50 35.64 36.20 36.42 36.65 36.77 36.68 36.54
33.43 34.67 35.37 34.73 35.03 36.52 34.09 32.86 30.55 29.40 31.86 31.06 30.38 30.52 31.28 32.63 33.38 33.85 34.15 33.13 33.55 34.10 34.47 34.68 34.84 33.76 33.10
32.27 32.23 32.47 32.54 32.57 32.76 33.03 33.75 32.47 30.95 32.09 32.79 31.50 30.01 30.13 29.39 30.96 31.74 32.19 32.13 32.28 32.34 33.17 33.06 32.82 32.34 30.22
31.91 31.31 30.98 31.10 31.61 32.13 32.26 32.33 31.97 32.09 32.10 31.46 31.45 30.47 29.55 28.59 27.57 29.80 30.52 31.82 31.73 30.87 31.39 31.74 32.21 32.34 32.34
30.00 29.85 30.81 31.25 31.13 31.34 31.44 31.40 31.45 31.21 31.39 31.37 31.38 29.96 29.56 28.54 28.09 28.56 28.32 30.09 31.24 30.24 30.40 29.87 29.13 29.28 27.68
30.03 30.31 30.90 31.31 30.89 31.35 30.89 30.51 30.49 30.54 29.85 31.06 30.63 30.09 29.19 29.37 29.02 28.17 29.64 27.99 30.46 30.31 29.72 29.03 28.97 29.45 28.93
30.79 30.29 29.81 30.19 30.06 30.75 30.32 30.51 29.58 29.91 30.22 30.15 30.35 30.20 30.09 28.95 27.03 27.95 28.16 29.00 30.04 29.79 28.25 26.66 27.60 28.49 28.67
31.17 30.95 30.71 30.72 30.49 30.81 30.36 29.79 29.17 29.39 29.47 30.26 29.18 28.23 28.08 28.90 29.57 27.69 28.43 28.61 29.49 28.82 27.61 25.42 25.23 27.76 28.86
31.01 30.85 30.47 30.22 29.47 30.04 29.90 29.44 28.78 28.99 29.43 29.33 27.02 25.04 22.15 22.48 29.03 31.15 27.29 27.42 27.83 26.82 26.98 26.27 25.01 26.24 27.77

GFSFLT2_sfc_wetblb_225.txt.gz
Wetbulb
46.56 46.92 46.78 46.88 47.17 47.64 47.73 48.06 50.04 51.40 51.05 50.54 49.77 49.06 48.37 47.55 46.81 45.91 45.23 44.84 45.53 46.68 47.39 47.57 47.77 48.37 48.23
42.82 42.28 43.72 44.31 43.82 42.83 42.38 43.28 45.67 48.95 49.07 48.30 47.49 46.60 45.75 45.02 44.39 43.78 43.48 43.63 44.64 45.61 45.36 45.11 45.54 46.22 46.58
40.13 38.76 38.63 38.83 37.02 37.01 37.21 37.06 39.67 45.13 46.40 46.02 45.43 44.60 43.95 43.46 43.10 42.61 42.22 42.97 44.13 43.54 42.91 43.00 43.69 43.88 43.87
37.74 36.18 36.08 35.84 36.34 34.58 33.51 34.29 33.50 37.21 39.76 40.70 41.21 41.85 42.50 42.08 41.67 41.24 41.40 42.32 43.56 43.24 42.59 41.84 41.66 41.92 41.89
35.82 34.72 34.11 33.30 34.49 34.33 32.71 32.55 32.17 33.39 33.66 34.26 35.12 35.91 37.31 39.59 40.62 39.24 39.31 40.23 40.82 41.14 40.91 40.80 40.49 40.51 40.88
36.06 35.51 33.95 34.52 33.78 33.90 31.93 31.66 31.18 33.06 33.50 33.48 34.08 34.24 35.47 35.88 38.63 38.41 37.29 37.64 38.57 39.04 39.35 39.27 39.44 39.72 39.99
36.87 35.84 33.85 33.96 33.91 32.39 32.16 32.48 30.94 31.07 33.77 32.77 33.32 32.36 34.12 34.66 36.25 35.94 36.41 36.86 37.62 38.02 38.10 38.39 38.73 39.14 39.33
36.87 35.83 35.79 35.86 35.41 34.29 32.95 30.88 31.60 32.65 33.40 29.76 31.03 30.06 31.37 31.71 34.65 35.06 35.46 35.96 36.61 37.06 37.41 37.78 38.15 38.39 38.41
40.74 40.18 39.53 39.09 36.87 34.78 32.01 31.70 28.18 28.37 30.09 29.19 28.81 29.59 30.78 31.45 32.09 33.24 34.02 35.38 36.19 36.51 37.36 37.40 37.37 37.37 35.59
32.48 33.49 34.82 35.70 37.30 35.06 33.07 32.37 29.79 28.59 30.08 29.89 28.46 28.21 27.58 29.85 30.18 30.07 29.50 34.71 34.88 35.44 35.70 35.64 35.70 31.18 29.67
30.33 31.01 31.30 31.19 31.19 31.67 31.72 32.24 32.04 29.17 30.41 31.57 29.91 28.04 27.93 27.12 28.03 28.69 28.78 29.22 29.04 30.04 33.72 34.37 34.50 32.96 27.83
29.47 29.30 29.28 29.45 29.82 30.36 30.60 30.23 30.45 30.05 29.84 30.68 28.29 28.95 27.25 26.32 25.82 27.75 27.70 28.79 28.35 27.98 28.13 31.74 33.60 33.98 34.03
28.45 28.44 29.14 29.35 30.26 30.16 30.26 30.29 29.86 29.30 30.93 29.74 29.14 27.72 26.00 23.72 23.64 25.37 26.02 27.20 28.40 26.04 25.93 25.70 26.32 26.25 25.21
28.33 28.47 29.39 29.94 29.12 29.67 28.60 28.47 27.30 27.52 28.66 28.79 28.21 26.49 22.17 24.92 23.87 24.86 25.19 21.84 25.96 25.24 25.76 25.50 26.51 26.05 26.24
29.12 28.52 28.53 28.99 28.85 28.63 27.78 26.72 24.22 24.95 25.37 26.32 26.75 27.28 25.86 22.29 20.59 24.83 25.57 25.70 25.62 25.24 25.47 25.24 25.95 26.20 26.28
28.86 28.49 27.63 26.95 26.76 27.25 26.51 24.80 23.46 24.22 23.88 25.20 28.31 27.00 26.32 25.37 29.29 24.15 24.79 25.11 25.16 25.21 25.34 24.41 23.77 25.49 26.47
28.28 28.51 27.88 27.85 27.88 27.48 27.53 27.11 26.36 26.76 27.88 28.88 25.87 23.65 20.41 18.63 22.99 32.27 25.00 25.19 23.96 24.20 24.29 23.18 22.22 23.91 25.38

GFSFLT2_sfc_wetblb_228.txt.gz
Wetbulb
44.44 44.40 46.30 46.64 47.07 47.00 47.11 48.12 50.70 53.00 53.27 53.18 52.76 52.58 51.85 51.52 50.96 50.37 49.88 49.23 48.74 48.27 48.07 48.13 48.16 48.33 49.10
41.63 42.38 43.28 44.32 44.23 42.76 42.77 44.23 47.07 50.76 51.05 50.27 49.63 49.11 48.76 48.33 47.69 47.03 46.34 45.96 46.07 46.24 46.63 46.55 45.81 46.07 47.17
43.06 39.70 38.71 39.27 37.63 37.60 38.09 38.00 40.39 47.00 48.19 47.97 47.44 46.80 46.22 45.62 44.91 44.23 43.77 43.80 44.24 44.88 44.18 43.52 43.43 44.42 45.13
39.94 36.86 36.83 36.43 36.69 35.12 34.65 34.91 34.65 38.91 41.78 42.71 43.66 44.56 44.34 44.05 43.21 42.23 42.05 42.29 43.40 44.01 42.95 42.34 41.95 42.40 43.01
36.66 35.70 34.92 33.95 35.04 35.04 33.46 33.01 32.77 34.17 34.31 35.04 35.87 36.62 38.57 40.70 41.74 40.92 40.85 41.22 41.60 41.94 41.89 41.54 41.26 41.15 41.20
37.04 36.38 35.28 35.12 34.35 34.30 32.70 32.39 32.17 33.61 33.97 33.51 34.93 34.97 36.15 37.55 39.32 39.87 38.34 38.76 39.43 39.83 39.67 39.82 39.79 39.94 40.26
37.26 36.54 34.63 34.71 34.19 32.65 32.39 32.53 31.71 31.79 33.93 32.34 33.80 33.30 34.66 35.23 37.57 37.46 37.19 37.28 37.52 37.90 38.36 38.63 38.85 39.22 39.53
36.30 35.45 35.62 35.92 35.26 34.31 32.66 31.19 31.86 33.09 33.49 29.47 31.66 29.98 30.45 29.49 35.22 35.88 36.39 36.66 37.03 37.46 37.90 38.17 38.29 38.50 38.86
40.77 40.67 40.07 38.77 36.77 34.69 32.53 31.68 28.40 27.88 29.59 27.53 27.83 28.47 29.35 29.88 31.35 34.93 34.93 35.41 35.94 36.54 37.27 38.02 37.98 37.84 35.65
29.02 31.40 32.67 34.35 36.15 34.51 32.51 28.00 27.18 27.00 28.94 29.17 27.82 28.23 27.04 28.46 28.39 28.98 28.90 35.02 35.41 35.87 36.27 36.46 36.36 30.64 28.64
26.90 27.80 28.42 28.57 28.58 28.73 28.36 28.34 25.33 24.14 28.55 26.86 24.64 25.35 24.36 25.47 27.22 27.68 27.78 27.79 27.84 29.09 33.30 34.44 34.97 33.62 27.19
27.09 26.58 26.63 26.59 26.87 27.45 28.02 28.17 28.55 27.81 28.36 30.00 22.21 24.40 21.27 21.50 24.33 27.03 26.28 26.92 26.49 26.41 26.95 31.08 33.94 34.43 34.61
26.25 26.29 26.58 27.29 28.88 28.67 29.24 29.44 28.22 27.97 29.74 28.40 25.37 24.99 20.79 17.46 19.34 23.28 25.23 26.08 26.84 23.90 23.59 24.73 25.84 25.58 24.98
25.99 26.48 27.11 26.00 25.85 26.74 24.75 26.03 23.07 25.40 28.12 27.97 27.35 23.81 15.87 20.48 20.20 22.19 23.33 19.93 24.31 22.73 23.74 24.32 25.80 25.97 26.10
26.69 27.00 27.94 27.31 26.75 24.69 23.72 20.57 17.26 19.18 21.17 23.95 25.10 26.80 24.64 20.72 24.32 22.90 23.46 23.20 23.63 24.59 23.87 23.52 24.26 25.46 25.71
27.39 26.90 26.21 25.83 26.14 26.07 27.13 26.28 25.74 26.25 26.57 27.73 27.85 26.34 19.30 21.19 28.49 22.57 19.74 21.76 23.83 23.85 23.72 22.50 23.17 25.20 25.43
26.25 25.91 25.55 25.72 25.67 25.44 25.33 24.88 23.93 24.37 25.07 26.81 25.87 20.84 10.81 10.11 20.63 29.38 19.13 21.15 21.60 21.67 23.08 22.29 21.45 23.21 24.33

GFSFLT2_sfc_wetblb_234.txt.gz
Wetbulb
46.82 45.21 43.24 45.13 44.01 44.51 45.49 44.86 45.18 50.20 54.12 53.38 53.90 54.33 55.12 55.86 56.40 57.05 56.91 57.49 57.60 59.11 58.59 57.61 56.96 56.74 55.80
46.28 43.28 42.09 43.10 43.51 43.37 42.61 43.52 43.04 47.42 51.40 51.47 51.43 51.75 51.95 52.55 52.28 52.01 53.00 55.28 56.79 57.15 57.56 57.42 56.51 55.65 54.15
45.00 42.64 41.93 40.75 39.47 38.85 38.92 39.21 40.35 42.98 46.16 48.75 49.16 49.28 49.38 49.23 48.86 48.37 48.32 49.15 49.41 49.76 50.05 50.28 50.33 50.00 49.45
44.20 41.93 38.89 37.91 37.85 37.25 36.83 35.73 35.69 37.95 39.89 42.22 44.10 45.93 46.17 45.69 45.47 45.17 45.46 46.43 47.25 47.09 46.38 45.47 45.13 45.21 45.02
39.54 37.32 36.92 36.17 35.80 35.91 35.00 34.48 34.37 35.07 35.91 36.25 37.31 38.19 39.92 41.87 42.32 43.47 44.10 44.93 45.58 45.06 44.53 43.83 43.02 42.21 41.84
37.91 37.05 36.48 35.93 35.49 34.46 33.29 32.76 32.88 34.59 34.62 34.50 35.87 35.60 36.56 38.73 41.82 41.21 41.41 41.16 41.00 40.87 40.94 40.72 40.40 40.59 40.68
35.21 34.39 34.48 35.01 34.95 33.37 32.81 32.59 31.90 32.22 33.71 32.28 34.07 33.90 35.26 36.61 38.90 38.68 38.81 38.65 38.59 38.72 38.97 39.16 39.63 39.76 39.54
37.29 36.24 35.46 35.28 34.97 34.25 32.84 31.52 32.72 33.30 33.03 29.80 32.83 32.22 32.49 32.07 35.62 36.35 36.57 36.88 37.17 37.70 37.96 38.18 38.20 38.42 38.82
36.78 37.42 38.36 38.63 37.94 35.20 32.28 28.67 26.66 26.35 27.42 26.36 26.17 26.85 28.46 29.29 30.80 35.72 35.66 35.97 36.15 36.53 37.09 37.54 37.79 37.77 34.70
26.17 27.93 28.96 30.18 32.72 27.04 27.43 23.77 23.99 21.67 26.11 24.72 25.38 26.25 23.66 26.60 27.58 28.12 28.97 35.02 35.98 35.94 35.90 35.94 36.06 31.33 30.53
25.58 25.76 26.61 26.95 27.02 27.11 26.81 25.89 21.81 22.44 27.06 23.01 21.40 23.13 20.64 23.48 25.98 26.20 26.04 26.61 26.31 27.39 32.25 33.47 34.60 33.64 28.75
25.93 25.81 25.95 25.96 26.48 26.96 27.16 26.40 26.89 25.54 26.25 26.06 15.33 18.36 12.34 14.41 20.49 26.33 25.83 25.92 25.80 26.13 26.52 30.26 32.30 33.24 34.00
25.71 25.95 25.94 26.02 27.60 26.83 27.45 27.52 27.29 27.50 28.25 26.75 22.12 21.61 15.39 12.22 15.92 19.87 23.75 25.29 25.22 23.19 23.75 24.34 25.10 25.90 25.41
26.00 26.34 26.60 26.06 25.85 26.10 22.20 24.04 20.38 23.30 27.17 28.24 26.74 21.49 13.17 18.14 20.69 19.38 22.59 16.79 23.17 21.86 22.77 23.62 24.69 25.57 25.42
25.99 26.08 26.33 26.54 26.31 26.16 25.61 21.33 20.64 17.36 19.97 23.44 23.65 24.15 22.08 16.64 18.45 17.42 18.03 18.00 20.16 21.09 21.33 20.83 22.65 23.57 24.14
23.15 23.70 23.71 23.70 21.26 19.41 18.04 14.48 11.89 16.21 13.50 15.08 14.23 11.71 12.32 16.30 25.12 19.65 16.32 16.29 19.55 20.07 20.36 15.89 18.95 21.94 23.13
22.76 22.54 22.13 17.20 16.12 14.55 17.39 14.77 12.06 12.06 10.25 8.17 3.52 2.01 4.34 3.04 16.83 25.59 13.45 19.05 15.70 18.73 19.04 17.56 18.09 21.09 22.98